Location: Le Gr�zie
(43.6000°N, 13.5000°E)
Time: 11:15:17
(UTC+00:00)

Cosmos 1821 Rocket - Pass Details

Date: 09 April 2020
Orbit: 945 x 1005 km, 82.9° (Epoch: 03 June)

Event Time Altitude Azimuth Distance (km) Brightness Sun altitude
Rises 20:17:45 0° 355° (N) 3,731 7.7 -25.7°
Reaches altitude 10° 20:20:21 10° 359° (N) 2,783 6.9 -26.0°
Maximum altitude 20:26:40 58° 79° (ENE) 1,162 4.1 -26.9°
Enters shadow 20:26:51 58° 86° (E) 1,164 4.1 -26.9°
